EWG33N EDDS-LIRN

Flight info

Callsign EWG33N
Flight time N/A
Altitude 37000
Route KUNOD2B KUNOD Y326 MOMUK L607 ELMEM N606 GIRIS DCT GUNGO DCT VADIK DCT ROVIG DCT UNUMU DCT ERIKA
Aircraft A320/M-SDE3FGHIRWY/LB1

Departure

Time 2026-05-05 08:21
Airport Stuttgart Airport (EDDS)

Arrival

Time N/A
Airport Naples International Airport (LIRN)
Time Latitude Longitude Altitude Speed Heading
2026-05-05 07:34 48.69115 9.20757 1281 ft 0 kts 163°
2026-05-05 08:16 48.69114 9.20757 1280 ft 0 kts 163°
2026-05-05 08:16 48.69099 9.20764 1280 ft 8 kts 164°
2026-05-05 08:16 48.69048 9.20786 1278 ft 8 kts 164°
2026-05-05 08:17 48.68989 9.20793 1276 ft 8 kts 211°
2026-05-05 08:17 48.68970 9.20729 1277 ft 5 kts 252°
2026-05-05 08:17 48.68956 9.20652 1280 ft 10 kts 255°
2026-05-05 08:17 48.68932 9.20523 1284 ft 15 kts 253°
2026-05-05 08:18 48.68901 9.20366 1287 ft 15 kts 253°
2026-05-05 08:18 48.68875 9.20226 1290 ft 13 kts 254°
2026-05-05 08:18 48.68854 9.20115 1293 ft 9 kts 254°
2026-05-05 08:18 48.68840 9.20044 1294 ft 5 kts 253°
2026-05-05 08:19 48.68820 9.19992 1295 ft 5 kts 229°
2026-05-05 08:19 48.68793 9.19963 1294 ft 5 kts 206°
2026-05-05 08:19 48.68713 9.19972 1291 ft 18 kts 164°
2026-05-05 08:19 48.68620 9.20013 1286 ft 10 kts 163°
2026-05-05 08:20 48.68589 9.20052 1284 ft 5 kts 78°
2026-05-05 08:20 48.68593 9.20108 1282 ft 0 kts 79°
2026-05-05 08:20 48.68602 9.20166 1283 ft 25 kts 75°
2026-05-05 08:21 48.68726 9.20816 1267 ft 100 kts 74°
2026-05-05 08:21 48.68974 9.22124 1244 ft 156 kts 74°
2026-05-05 08:21 48.69285 9.23782 1772 ft 163 kts 74°
2026-05-05 08:21 48.69586 9.25431 2514 ft 165 kts 73°
2026-05-05 08:22 48.69897 9.27188 2920 ft 184 kts 75°
2026-05-05 08:22 48.70242 9.29134 3346 ft 200 kts 75°
2026-05-05 08:22 48.70620 9.31260 3747 ft 218 kts 75°
2026-05-05 08:22 48.71028 9.33533 4372 ft 230 kts 76°
2026-05-05 08:23 48.71465 9.35891 5157 ft 235 kts 75°
2026-05-05 08:23 48.71923 9.38279 6007 ft 237 kts 75°
2026-05-05 08:23 48.72394 9.40715 6742 ft 243 kts 75°
2026-05-05 08:23 48.72731 9.43225 7509 ft 245 kts 94°
2026-05-05 08:24 48.72306 9.45723 8301 ft 247 kts 117°
2026-05-05 08:24 48.71360 9.47893 9103 ft 249 kts 135°
2026-05-05 08:24 48.70003 9.49503 9923 ft 251 kts 153°
2026-05-05 08:24 48.68364 9.50398 10674 ft 253 kts 168°
2026-05-05 08:25 48.66572 9.50970 11053 ft 275 kts 168°
2026-05-05 08:25 48.64622 9.51611 11320 ft 299 kts 168°
2026-05-05 08:25 48.62511 9.52316 11562 ft 322 kts 168°
2026-05-05 08:25 48.60246 9.53078 11806 ft 343 kts 168°
2026-05-05 08:26 48.57882 9.53875 12373 ft 351 kts 168°
2026-05-05 08:26 48.55479 9.54683 13073 ft 356 kts 168°
2026-05-05 08:26 48.53048 9.55495 13820 ft 359 kts 169°
2026-05-05 08:26 48.50621 9.56446 14495 ft 363 kts 160°
2026-05-05 08:27 48.48373 9.58137 15158 ft 367 kts 153°
2026-05-05 08:27 48.46561 9.59617 15691 ft 369 kts 153°
2026-05-05 08:27 48.45915 9.60150 15867 ft 370 kts 153°
2026-05-05 08:28 48.43620 9.62047 16519 ft 372 kts 153°
2026-05-05 08:28 48.41373 9.63909 17151 ft 375 kts 153°
2026-05-05 08:28 48.39078 9.65809 17772 ft 378 kts 153°
2026-05-05 08:28 48.36769 9.67710 18350 ft 381 kts 153°
2026-05-05 08:29 48.34430 9.69615 18859 ft 384 kts 154°
2026-05-05 08:29 48.32061 9.71498 19354 ft 387 kts 154°
2026-05-05 08:29 48.31459 9.71971 19492 ft 388 kts 154°